KC1OEK-13 Weather Reports


time (UTC)temp
C
wind
direction
speed
KPH
gust
KPH
rain 1hr
cm
rain 24hr
cm
rain mn
cm
humidity
%
barometer
mb
20260505193722 25 222 9.7 16.1 0.00 0.00 0.00 46 1009.4
20260505193220 25 175 8.0 14.5 0.00 0.00 0.00 46 1009.4
20260505192719 26 203 11.3 25.7 0.00 0.00 0.00 45 1009.6
20260505192216 26 216 12.9 16.1 0.00 0.00 0.00 47 1009.5
20260505191714 25 238 9.7 17.7 0.00 0.00 0.00 47 1009.4
20260505191212 25 238 4.8 25.7 0.00 0.00 0.00 46 1009.5
20260505190708 25 157 11.3 24.1 0.00 0.00 0.00 44 1009.5
20260505190207 26 227 11.3 17.7 0.00 0.00 0.00 46 1009.8
20260505185705 26 336 12.9 24.1 0.00 0.00 0.00 44 1009.7
20260505185201 26 210 8.0 11.3 0.00 0.00 0.00 46 1009.7
20260505184657 26 231 9.7 16.1 0.00 0.00 0.00 44 1009.9
20260505184154 26 218 9.7 24.1 0.00 0.00 0.00 47 1010.1
20260505183651 26 212 16.1 25.7 0.00 0.00 0.00 45 1010.1
20260505183149 26 197 6.4 11.3 0.00 0.00 0.00 45 1009.9
20260505182645 26 143 11.3 24.1 0.00 0.00 0.00 45 1010.0
20260505182142 26 273 4.8 14.5 0.00 0.00 0.00 46 1010.0
20260505181638 26 12 9.7 32.2 0.00 0.00 0.00 46 1009.9
20260505181136 26 169 6.4 29.0 0.00 0.00 0.00 46 1009.9
20260505180632 26 225 4.8 9.7 0.00 0.00 0.00 46 1010.0
20260505180130 27 265 9.7 17.7 0.00 0.00 0.00 43 1009.8
20260505175625 26 283 6.4 11.3 0.00 0.00 0.00 44 1009.7
20260505175121 27 30 3.2 12.9 0.00 0.00 0.00 44 1010.0
20260505174613 26 265 6.4 20.9 0.00 0.00 0.00 43 1009.9
20260505174109 26 359 1.6 25.7 0.00 0.00 0.00 44 1009.9
20260505173606 26 232 12.9 24.1 0.00 0.00 0.00 47 1009.9
20260505173103 26 327 3.2 11.3 0.00 0.00 0.00 47 1010.1
20260505172600 25 209 3.2 12.9 0.00 0.00 0.00 45 1010.3
20260505172057 25 157 16.1 27.4 0.00 0.00 0.00 44 1010.2
20260505171551 26 303 4.8 11.3 0.00 0.00 0.00 47 1010.4
20260505171049 25 220 8.0 17.7 0.00 0.00 0.00 50 1010.3
20260505170545 25 38 4.8 25.7 0.00 0.00 0.00 47 1010.3
20260505170042 25 29 6.4 11.3 0.00 0.00 0.00 46 1010.5
20260505165537 25 151 4.8 20.9 0.00 0.00 0.00 48 1010.7
20260505165033 25 209 3.2 27.4 0.00 0.00 0.00 50 1010.7
20260505164529 25 214 14.5 17.7 0.00 0.00 0.00 46 1010.7
20260505164027 25 244 6.4 17.7 0.00 0.00 0.00 50 1010.8
20260505163525 25 108 8.0 14.5 0.00 0.00 0.00 50 1011.0
20260505163022 25 319 1.6 14.5 0.00 0.00 0.00 49 1010.8
20260505162515 24 268 6.4 17.7 0.00 0.00 0.00 50 1011.1
20260505162012 24 255 1.6 12.9 0.00 0.00 0.00 49 1011.1
20260505161509 24 278 9.7 20.9 0.00 0.00 0.00 51 1011.1
20260505161006 24 180 11.3 20.9 0.00 0.00 0.00 50 1011.1
20260505160504 24 234 1.6 11.3 0.00 0.00 0.00 51 1011.2
20260505152940 22 198 9.7 14.5 0.00 0.00 0.00 51 1011.5
20260505152438 22 201 6.4 12.9 0.00 0.00 0.00 52 1011.7
20260505151937 22 195 6.4 12.9 0.00 0.00 0.00 53 1011.7
20260505151428 23 206 11.3 16.1 0.00 0.00 0.00 52 1012.0
20260505150926 22 147 0.0 8.0 0.00 0.00 0.00 54 1012.3
20260505150422 22 309 3.2 12.9 0.00 0.00 0.00 54 1012.2
20260505140352 20 13 1.6 9.7 0.00 0.00 0.00 62 1012.0
20260505124806 14 310 3.2 3.2 0.00 0.00 0.00 80 1012.6
20260505124303 13 23 0.0 3.2 0.00 0.00 0.00 80 1012.5
20260505123758 13 359 1.6 1.6 0.00 0.00 0.00 80 1012.5
20260505123255 13 4 1.6 3.2 0.00 0.00 0.00 81 1012.6
20260505122751 13 10 0.0 0.0 0.00 0.00 0.00 83 1012.5
20260505122249 12 28 0.0 0.0 0.00 0.00 0.00 85 1012.5
20260505121745 12 12 4.8 4.8 0.00 0.00 0.00 86 1012.8
20260505121242 12 282 1.6 3.2 0.00 0.00 0.00 87 1012.9
20260505120738 11 12 0.0 0.0 0.00 0.00 0.00 89 1012.6
20260505120235 11 21 0.0 0.0 0.00 0.00 0.00 90 1012.6
20260505115733 10 26 0.0 0.0 0.00 0.00 0.00 91 1012.9
20260505115231 10 26 0.0 0.0 0.00 0.00 0.00 93 1012.8
20260505114728 10 30 0.0 1.6 0.00 0.00 0.00 95 1012.7
20260505114224 9 24 0.0 1.6 0.00 0.00 0.00 96 1012.7
20260505113721 8 20 0.0 0.0 0.00 0.00 0.00 97 1012.8
20260505113217 8 17 0.0 0.0 0.00 0.00 0.00 98 1012.6
20260505112714 7 10 0.0 0.0 0.00 0.00 0.00 98 1012.7
20260505112212 7 15 0.0 1.6 0.00 0.00 0.00 99 1012.8
20260505111706 7 22 0.0 0.0 0.00 0.00 0.00 99 1012.8
20260505111202 6 16 0.0 0.0 0.00 0.00 0.00 99 1012.7
20260505110658 6 87 1.6 1.6 0.00 0.00 0.00 99 1012.7
20260505110156 6 16 0.0 1.6 0.00 0.00 0.00 99 1012.7
20260505102131 5 8 0.0 1.6 0.00 0.00 0.00 99 1012.3
20260505101630 5 13 0.0 1.6 0.00 0.00 0.00 99 1012.1
20260505101126 5 6 0.0 0.0 0.00 0.00 0.00 99 1012.1
20260505100622 5 2 0.0 0.0 0.00 0.00 0.00 99 1012.2
20260505100119 5 2 0.0 0.0 0.00 0.00 0.00 99 1011.9
20260505095615 5 25 1.6 1.6 0.00 0.00 0.00 99 1011.9
20260505095112 5 13 0.0 0.0 0.00 0.00 0.00 99 1011.9
20260505094608 5 18 0.0 0.0 0.00 0.00 0.00 99 1012.0
20260505094105 5 19 0.0 0.0 0.00 0.00 0.00 99 1011.8
20260505093601 5 19 0.0 0.0 0.00 0.00 0.00 99 1011.9
20260505093058 5 19 0.0 0.0 0.00 0.00 0.00 99 1011.9
20260505092556 5 20 0.0 0.0 0.00 0.00 0.00 99 1011.6
20260505092054 5 20 0.0 0.0 0.00 0.00 0.00 99 1011.9
20260505091550 5 20 0.0 0.0 0.00 0.00 0.00 99 1012.0
20260505091049 5 20 0.0 0.0 0.00 0.00 0.00 98 1011.8
20260505090547 5 20 0.0 0.0 0.00 0.00 0.00 98 1011.7
20260505090044 5 20 0.0 0.0 0.00 0.00 0.00 98 1011.8
20260505085542 5 20 0.0 0.0 0.00 0.00 0.00 98 1011.7
20260505085040 5 20 0.0 0.0 0.00 0.00 0.00 98 1011.8
20260505084538 5 19 0.0 0.0 0.00 0.00 0.00 98 1011.8
20260505084036 5 19 0.0 0.0 0.00 0.00 0.00 98 1011.8
20260505083532 5 19 0.0 0.0 0.00 0.00 0.00 98 1011.8
20260505083029 6 24 0.0 0.0 0.00 0.00 0.00 98 1011.9
20260505082525 6 23 0.0 0.0 0.00 0.00 0.00 98 1011.8
20260505082022 6 18 0.0 1.6 0.00 0.00 0.00 98 1011.8
20260505081518 6 13 0.0 0.0 0.00 0.00 0.00 98 1012.0
20260505081015 6 11 0.0 1.6 0.00 0.00 0.00 98 1012.0
20260505080511 6 11 0.0 1.6 0.00 0.00 0.00 98 1012.0
20260505080008 6 23 0.0 0.0 0.00 0.00 0.00 98 1012.0
20260505075504 6 23 0.0 0.0 0.00 0.00 0.00 97 1012.0
20260505075001 6 23 0.0 0.0 0.00 0.00 0.00 97 1012.1
20260505074459 6 23 0.0 1.6 0.00 0.00 0.00 97 1012.1
20260505073955 6 27 0.0 0.0 0.00 0.00 0.00 97 1012.1
20260505073453 6 26 0.0 0.0 0.00 0.00 0.00 97 1012.1
20260505072950 6 26 0.0 0.0 0.00 0.00 0.00 97 1012.0
20260505072446 6 26 0.0 0.0 0.00 0.00 0.00 97 1011.9
20260505071942 6 26 0.0 1.6 0.00 0.00 0.00 97 1012.0
20260505071438 6 26 0.0 0.0 0.00 0.00 0.00 97 1011.9
20260505070937 6 8 0.0 0.0 0.00 0.00 0.00 96 1011.8
20260505070433 6 8 0.0 0.0 0.00 0.00 0.00 96 1011.8
20260505065929 6 8 0.0 0.0 0.00 0.00 0.00 96 1011.7
20260505065426 6 21 0.0 0.0 0.00 0.00 0.00 96 1011.9
20260505064922 6 21 0.0 0.0 0.00 0.00 0.00 96 1012.2
20260505064419 6 21 0.0 0.0 0.00 0.00 0.00 96 1012.1
20260505063918 6 21 0.0 0.0 0.00 0.00 0.00 96 1011.9
20260505063414 6 21 0.0 0.0 0.00 0.00 0.00 95 1012.2
20260505062910 6 21 0.0 0.0 0.00 0.00 0.00 95 1012.2
20260505062408 6 21 0.0 0.0 0.00 0.00 0.00 95 1012.1
20260505061904 6 21 0.0 0.0 0.00 0.00 0.00 95 1012.0
20260505061403 6 21 0.0 0.0 0.00 0.00 0.00 94 1012.2
20260505060900 7 21 0.0 0.0 0.00 0.00 0.00 94 1012.1
20260505060356 7 26 0.0 0.0 0.00 0.00 0.00 94 1012.3
20260505055853 7 20 0.0 0.0 0.00 0.00 0.00 94 1012.2
20260505055348 7 15 0.0 0.0 0.00 0.00 0.00 94 1012.0
20260505054846 7 12 0.0 0.0 0.00 0.00 0.00 93 1012.3
20260505054343 7 12 0.0 0.0 0.00 0.00 0.00 93 1012.3
20260505053841 7 12 0.0 0.0 0.00 0.00 0.00 93 1012.3
20260505053338 7 11 0.0 0.0 0.00 0.00 0.00 93 1012.4
20260505052835 7 11 0.0 0.0 0.00 0.00 0.00 93 1012.3
20260505052332 7 11 0.0 0.0 0.00 0.00 0.00 92 1012.5
20260505051829 7 11 0.0 1.6 0.00 0.00 0.00 92 1012.5
20260505051326 7 23 0.0 0.0 0.00 0.00 0.00 92 1012.6
20260505050824 7 23 0.0 0.0 0.00 0.00 0.00 92 1012.2
20260505050323 7 9 0.0 0.0 0.00 0.00 0.00 91 1012.5
20260505041752 8 23 0.0 0.0 0.00 0.00 0.00 88 1012.6
20260505041249 8 23 0.0 0.0 0.00 0.00 0.00 88 1012.7
20260505040747 8 23 0.0 0.0 0.00 0.00 0.00 88 1012.8
20260505040244 8 23 0.0 0.0 0.00 0.00 0.00 87 1012.7
20260505035741 8 23 0.0 0.0 0.00 0.00 0.00 87 1012.8
20260505035237 8 23 0.0 0.0 0.00 0.00 0.00 86 1012.8
20260505034734 8 23 0.0 0.0 0.00 0.00 0.00 85 1012.7
20260505034231 9 23 0.0 0.0 0.00 0.00 0.00 84 1012.7
20260505033727 9 23 0.0 0.0 0.00 0.00 0.00 83 1012.4
20260505033225 10 23 0.0 1.6 0.00 0.00 0.00 82 1012.8
20260505032723 10 24 0.0 0.0 0.00 0.00 0.00 79 1012.7
20260505032218 11 25 0.0 1.6 0.00 0.00 0.00 77 1012.8
20260505031716 11 4 1.6 1.6 0.00 0.00 0.00 78 1012.7
20260505031212 11 11 0.0 0.0 0.00 0.00 0.00 77 1012.6
20260505030709 11 25 0.0 1.6 0.00 0.00 0.00 78 1012.7
20260505030205 11 10 0.0 1.6 0.00 0.00 0.00 78 1012.9
20260505025701 10 23 0.0 0.0 0.00 0.00 0.00 78 1012.8
20260505025200 11 23 0.0 0.0 0.00 0.00 0.00 77 1012.7
20260505024657 11 23 0.0 0.0 0.00 0.00 0.00 76 1012.5
20260505024154 11 23 0.0 0.0 0.00 0.00 0.00 74 1012.7
20260505023652 12 29 0.0 1.6 0.00 0.00 0.00 73 1012.7
20260505023149 12 11 0.0 1.6 0.00 0.00 0.00 71 1012.8
20260505022646 12 11 0.0 1.6 0.00 0.00 0.00 71 1012.7
20260505022143 12 2 0.0 1.6 0.00 0.00 0.00 70 1012.8
20260505021640 12 12 0.0 1.6 0.00 0.00 0.00 70 1012.9
20260505021137 12 12 0.0 1.6 0.00 0.00 0.00 69 1012.7
20260505020632 12 345 1.6 1.6 0.00 0.00 0.00 69 1012.7
20260505020128 12 8 0.0 1.6 0.00 0.00 0.00 68 1012.7
20260505015626 13 9 0.0 1.6 0.00 0.00 0.00 68 1012.7
20260505015122 13 213 1.6 1.6 0.00 0.00 0.00 67 1012.5
20260505014619 13 4 1.6 1.6 0.00 0.00 0.00 67 1012.6
20260505014116 13 41 1.6 3.2 0.00 0.00 0.00 67 1012.6
20260505013614 13 10 0.0 1.6 0.00 0.00 0.00 66 1012.6
20260505013110 13 346 1.6 3.2 0.00 0.00 0.00 65 1012.6
20260505012609 13 355 1.6 4.8 0.00 0.00 0.00 64 1012.5
20260505012105 13 338 3.2 4.8 0.00 0.00 0.00 63 1012.5
20260505011601 13 309 3.2 4.8 0.00 0.00 0.00 63 1012.3
20260505011058 13 323 3.2 3.2 0.00 0.00 0.00 63 1012.4
20260505010553 13 0 1.6 3.2 0.00 0.00 0.00 63 1012.1
20260505010050 14 12 0.0 1.6 0.00 0.00 0.00 62 1012.0
20260505005547 14 311 1.6 4.8 0.00 0.00 0.00 60 1012.0
20260505005044 14 320 3.2 8.0 0.00 0.00 0.00 60 1011.9
20260505004541 14 337 1.6 9.7 0.00 0.00 0.00 60 1011.9
20260505004038 15 2 0.0 3.2 0.00 0.00 0.00 59 1011.8
20260505003535 15 285 3.2 8.0 0.00 0.00 0.00 58 1011.8
20260505003032 15 298 4.8 8.0 0.00 0.00 0.00 57 1011.9
20260505002526 15 222 1.6 8.0 0.00 0.00 0.00 57 1011.5
20260505002026 15 312 3.2 12.9 0.00 0.00 0.00 56 1011.5
20260505001523 15 184 3.2 4.8 0.00 0.00 0.00 56 1011.3
20260505001020 15 228 6.4 11.3 0.00 0.00 0.00 55 1011.3
20260505000517 16 17 1.6 14.5 0.00 0.00 0.00 54 1011.2
20260505000014 16 219 3.2 3.2 0.00 0.00 0.00 55 1011.2
20260504235511 16 100 3.2 4.8 0.00 0.00 0.00 54 1011.0
20260504235007 16 9 1.6 8.0 0.00 0.00 0.00 53 1010.9
20260504234505 16 328 1.6 3.2 0.00 0.00 0.00 53 1010.9
20260504234001 16 295 3.2 9.7 0.00 0.00 0.00 52 1010.8
20260504233457 16 32 1.6 12.9 0.00 0.00 0.00 52 1010.7
20260504232954 17 214 6.4 17.7 0.00 0.00 0.00 51 1010.6
20260504232451 17 168 6.4 11.3 0.00 0.00 0.00 51 1010.5
20260504231949 17 28 0.0 11.3 0.00 0.00 0.00 51 1010.4
20260504231444 17 248 8.0 11.3 0.00 0.00 0.00 50 1010.2
20260504230941 17 231 4.8 17.7 0.00 0.00 0.00 50 1010.3
20260504230438 17 151 3.2 9.7 0.00 0.00 0.00 51 1010.3
20260504225937 17 220 19.3 24.1 0.00 0.00 0.00 49 1010.4
20260504225433 18 258 11.3 25.7 0.00 0.00 0.00 48 1010.3
20260504224930 18 264 9.7 12.9 0.00 0.00 0.00 47 1010.3
20260504224427 18 264 4.8 11.3 0.00 0.00 0.00 48 1010.3
20260504223924 18 221 6.4 9.7 0.00 0.00 0.00 47 1010.3
20260504223420 18 193 12.9 17.7 0.00 0.00 0.00 45 1010.3
20260504222916 18 319 6.4 12.9 0.00 0.00 0.00 46 1010.2
20260504222413 18 286 6.4 12.9 0.00 0.00 0.00 45 1010.3
20260504221912 19 85 11.3 17.7 0.00 0.00 0.00 44 1010.1
20260504221408 19 177 6.4 14.5 0.00 0.00 0.00 44 1010.1
20260504220905 19 202 4.8 16.1 0.00 0.00 0.00 44 1010.1
20260504220401 20 345 6.4 17.7 0.00 0.00 0.00 40 1010.1
20260504215859 20 299 8.0 24.1 0.00 0.00 0.00 34 1010.1
20260504215355 21 198 4.8 8.0 0.00 0.00 0.00 33 1010.0
20260504214851 21 325 4.8 8.0 0.00 0.00 0.00 34 1010.0
20260504214348 20 212 8.0 16.1 0.00 0.00 0.00 34 1010.1
20260504213845 20 128 1.6 20.9 0.00 0.00 0.00 34 1010.2
20260504213341 20 242 6.4 11.3 0.00 0.00 0.00 34 1010.2
20260504212838 21 252 6.4 14.5 0.00 0.00 0.00 33 1010.2
20260504212334 21 316 4.8 8.0 0.00 0.00 0.00 33 1010.0
20260504211832 21 215 6.4 11.3 0.00 0.00 0.00 33 1010.0
20260504211328 21 212 9.7 14.5 0.00 0.00 0.00 33 1010.0
20260504210826 21 260 4.8 14.5 0.00 0.00 0.00 34 1010.2
20260504210323 22 5 1.6 4.8 0.00 0.00 0.00 31 1010.1
20260504205820 22 244 12.9 14.5 0.00 0.00 0.00 32 1010.1
20260504205318 21 228 6.4 11.3 0.00 0.00 0.00 34 1010.1
20260504204816 21 222 8.0 9.7 0.00 0.00 0.00 35 1010.1
20260504204314 21 204 6.4 11.3 0.00 0.00 0.00 36 1010.1
20260504203813 21 244 8.0 17.7 0.00 0.00 0.00 33 1010.2
20260504203310 21 300 3.2 11.3 0.00 0.00 0.00 33 1010.0
20260504202805 21 207 11.3 20.9 0.00 0.00 0.00 33 1010.3
20260504202304 22 224 14.5 16.1 0.00 0.00 0.00 32 1009.9
20260504201759 22 289 4.8 9.7 0.00 0.00 0.00 34 1010.3
20260504201256 21 218 12.9 14.5 0.00 0.00 0.00 32 1010.2
20260504200754 21 83 4.8 12.9 0.00 0.00 0.00 37 1010.2
20260504200250 22 291 6.4 16.1 0.00 0.00 0.00 33 1010.2
20260504195746 21 129 6.4 22.5 0.00 0.00 0.00 36 1010.0
20260504195242 21 154 9.7 12.9 0.00 0.00 0.00 33 1010.3
20260504194740 22 239 11.3 12.9 0.00 0.00 0.00 33 1010.3
20260504194236 21 194 9.7 22.5 0.00 0.00 0.00 33 1010.3